Location: Unspecified
(52.4361°N, 0.0000°E)
Time: 10:06:21
(UTC+00:00)

AAUSAT CUBESAT 2 - Visible Passes

Search period start: 17 October 2019 00:00
Search period end: 27 October 2019 00:00
Orbit: 574 x 591 km, 97.5° (Epoch: 16 October)

Date Brightness Start Highest point End Pass type
(mag) Time Alt. Az. Time Alt. Az. Time Alt. Az.
17 Oct ? 05:36:14 10° NE 05:38:48 16° E 05:41:21 10° SE visible
17 Oct ? 18:05:31 10° S 18:09:32 48° W 18:13:34 10° NNW visible
18 Oct ? 05:41:50 10° NE 05:44:42 18° E 05:47:31 10° SE visible
18 Oct ? 18:11:26 10° S 18:15:23 42° W 18:19:21 10° NNW visible
19 Oct ? 05:47:29 10° NE 05:50:35 20° E 05:53:39 10° SE visible
19 Oct ? 18:17:23 10° SSW 18:21:14 37° W 18:25:07 10° NNW visible
20 Oct ? 05:53:09 10° NE 05:56:27 23° E 05:59:44 10° SE visible
20 Oct ? 18:23:21 10° SSW 18:27:06 33° W 18:30:52 10° NNW visible
21 Oct ? 05:58:52 10° NE 06:02:20 26° E 06:05:46 10° SSE visible
21 Oct ? 18:29:21 10° SSW 18:32:58 29° W 18:36:36 10° NNW visible
22 Oct ? 18:35:22 10° SSW 18:38:50 26° W 18:42:19 10° NW visible
23 Oct ? 18:41:26 10° SW 18:44:43 23° W 18:48:01 10° NW visible
24 Oct ? 18:47:31 10° SW 18:50:35 20° W 18:53:41 10° NW visible
25 Oct ? 17:16:39 10° SSE 17:20:42 58° ENE 17:24:46 10° N visible
25 Oct ? 18:53:38 10° SW 18:56:28 18° W 18:59:19 10° NW visible
26 Oct ? 17:22:25 10° SSE 17:26:30 67° ENE 17:30:37 10° N visible
26 Oct ? 18:59:50 10° SW 19:02:22 16° W 19:04:55 10° NW visible
